KI5KMR-13 Weather Reports


time (UTC)temp
C
wind
direction
speed
KPH
gust
KPH
rain 1hr
cm
rain 24hr
cm
rain mn
cm
humidity
%
barometer
mb
20240221213038 24 113 6.4 12.9 0.00 0.00 0.00 62 1013.4
20240221212017 24 113 6.4 17.7 0.00 0.00 0.00 61 1013.6
20240221211038 24 113 4.8 14.5 0.00 0.00 0.00 62 1013.7
20240221210017 23 113 6.4 17.7 0.00 0.00 0.00 63 1013.9
20240221205017 23 113 4.8 12.9 0.00 0.00 0.00 64 1014.0
20240221204018 23 113 6.4 17.7 0.00 0.00 0.00 65 1014.2
20240221203018 23 135 6.4 14.5 0.00 0.00 0.00 67 1014.3
20240221202017 23 113 6.4 14.5 0.00 0.00 0.00 66 1014.4
20240221201018 23 113 8.0 14.5 0.00 0.00 0.00 66 1014.9
20240221200017 23 113 6.4 17.7 0.00 0.00 0.00 69 1015.0
20240221195018 23 113 6.4 16.1 0.00 0.00 0.00 67 1015.1
20240221194037 23 135 6.4 16.1 0.00 0.00 0.00 67 1015.3
20240221193017 24 113 6.4 20.9 0.00 0.00 0.00 66 1015.6
20240221192017 24 113 6.4 17.7 0.00 0.00 0.00 65 1015.8
20240221191017 24 113 6.4 14.5 0.00 0.00 0.00 66 1016.1
20240221190017 24 113 4.8 12.9 0.00 0.00 0.00 66 1016.3
20240221185017 23 113 6.4 22.5 0.00 0.00 0.00 67 1016.4
20240221184018 23 113 4.8 11.3 0.00 0.00 0.00 68 1016.6
20240221183017 23 113 8.0 17.7 0.00 0.00 0.00 67 1016.7
20240221182017 23 113 6.4 14.5 0.00 0.00 0.00 66 1016.9
20240221181017 23 113 6.4 19.3 0.00 0.00 0.00 67 1017.1
20240221180037 23 113 4.8 17.7 0.00 0.00 0.00 68 1017.4
20240221175017 23 113 4.8 12.9 0.00 0.00 0.00 68 1017.7
20240221174017 23 113 4.8 12.9 0.00 0.00 0.00 67 1017.8
20240221173017 22 113 6.4 12.9 0.00 0.00 0.00 67 1018.0
20240221172017 22 113 4.8 11.3 0.00 0.00 0.00 68 1018.1
20240221171018 22 113 3.2 14.5 0.00 0.00 0.00 67 1018.4
20240221170017 22 113 4.8 11.3 0.00 0.00 0.00 70 1018.4
20240221165017 21 113 4.8 12.9 0.00 0.00 0.00 70 1018.5
20240221164017 21 113 4.8 12.9 0.00 0.00 0.00 71 1018.6
20240221163017 21 113 3.2 8.0 0.00 0.00 0.00 72 1018.7
20240221162017 20 113 4.8 12.9 0.00 0.00 0.00 74 1018.8
20240221161118 20 113 4.8 12.9 0.00 0.00 0.00 74 1018.9
20240221160017 19 113 3.2 9.7 0.00 0.00 0.00 76 1018.9
20240221155017 18 113 6.4 14.5 0.00 0.00 0.00 77 1018.8
20240221154017 18 113 4.8 14.5 0.00 0.00 0.00 77 1018.9
20240221153037 18 113 4.8 9.7 0.00 0.00 0.00 78 1018.8
20240221152017 18 113 3.2 9.7 0.00 0.00 0.00 81 1018.8
20240221151037 17 113 4.8 17.7 0.00 0.00 0.00 82 1018.6
20240221150017 17 113 4.8 19.3 0.00 0.00 0.00 82 1018.7
20240221145017 17 135 1.6 9.7 0.00 0.00 0.00 82 1018.6
20240221144037 17 135 4.8 14.5 0.00 0.00 0.00 84 1018.5
20240221143017 16 135 3.2 9.7 0.00 0.00 0.00 86 1018.4
20240221142017 16 135 3.2 11.3 0.00 0.00 0.00 87 1018.4
20240221141016 16 135 3.2 8.0 0.00 0.00 0.00 87 1018.4
20240221140017 16 135 1.6 4.8 0.00 0.00 0.00 88 1018.4
20240221135017 15 135 1.6 11.3 0.00 0.00 0.00 88 1018.4
20240221134037 15 135 1.6 8.0 0.00 0.00 0.00 88 1018.5
20240221133017 15 135 1.6 8.0 0.00 0.00 0.00 88 1018.4
20240221132017 15 135 3.2 11.3 0.00 0.00 0.00 88 1018.5
20240221131019 15 135 1.6 4.8 0.00 0.00 0.00 88 1018.5
20240221130017 15 135 1.6 6.4 0.00 0.00 0.00 88 1018.6
20240221125019 15 135 1.6 8.0 0.00 0.00 0.00 88 1018.6
20240221124020 15 135 1.6 8.0 0.00 0.00 0.00 88 1018.6
20240221123018 15 135 1.6 6.4 0.00 0.00 0.00 88 1018.6
20240221122039 15 135 1.6 8.0 0.00 0.00 0.00 88 1018.7
20240221121019 15 135 1.6 9.7 0.00 0.00 0.00 88 1018.7
20240221120019 15 135 3.2 8.0 0.00 0.00 0.00 89 1018.7
20240221115019 15 135 3.2 8.0 0.00 0.00 0.00 89 1018.7
20240221114018 15 135 1.6 8.0 0.00 0.00 0.00 89 1018.5
20240221113039 15 135 3.2 8.0 0.00 0.00 0.00 89 1018.5
20240221112019 15 135 3.2 8.0 0.00 0.00 0.00 89 1018.4
20240221111019 15 135 3.2 11.3 0.00 0.00 0.00 89 1018.3
20240221110019 15 135 3.2 11.3 0.00 0.00 0.00 89 1018.2
20240221105019 16 135 3.2 8.0 0.00 0.00 0.00 89 1018.3
20240221104100 16 135 4.8 12.9 0.00 0.00 0.00 88 1018.4
20240221103018 16 135 3.2 14.5 0.00 0.00 0.00 90 1018.4
20240221102019 16 135 3.2 11.3 0.00 0.00 0.00 90 1018.4
20240221101018 16 135 3.2 8.0 0.00 0.00 0.00 90 1018.5
20240221100018 16 135 3.2 11.3 0.00 0.00 0.00 91 1018.3
20240221095018 16 135 3.2 8.0 0.00 0.00 0.00 91 1018.3